Weather observations for the past three days for
Torrance, Zamperini Field Airport
| Date | Time (pdt) | Wind (kph) | Vis. (km) | Weather | Sky Cond. | Temperature (ºC) | Relative Humidity | Wind Chill (°C) | Heat Index (°C) | Pressure | Precipitation (cm) | ||||||
|---|---|---|---|---|---|---|---|---|---|---|---|---|---|---|---|---|---|
| Air | Dwpt | 6 hour | altimeter (cm) | sea level (mb) | 1 hr | 3 hr | 6 hr | ||||||||||
| Max. | Min. | ||||||||||||||||
| 07 | 13:47 | W 26 | 16.09 | A Few Clouds | FEW010 | 21 | 15 | 69% | 76.15 | 0.0 | |||||||
| 07 | 12:51 | W 19 | 16.09 | A Few Clouds | FEW010 | 22 | 15 | 65% | 76.17 | 0.0 | |||||||
| 07 | 11:47 | W 15 | 16.09 | A Few Clouds | FEW010 | 21 | 14 | 64% | 76.23 | 0.0 | |||||||
| 07 | 10:48 | W 13 | 16.09 | A Few Clouds | FEW010 | 21 | 14 | 64% | 76.23 | 0.0 | |||||||
| 07 | 09:47 | W 11 | 16.09 | A Few Clouds | FEW010 | 19 | 14 | 73% | 76.25 | 0.0 | |||||||
| 07 | 08:47 | W 7 | 16.09 | A Few Clouds | FEW010 | 18 | 13 | 73% | 76.28 | 0.0 | |||||||
| 07 | 07:47 | Calm | 16.09 | A Few Clouds | FEW010 | 17 | 13 | 77% | 76.28 | 0.0 | |||||||
| 07 | 06:47 | Calm | 16.09 | A Few Clouds | FEW010 FEW200 | 13 | 11 | 88% | 76.25 | 0.0 | |||||||
| 06 | 19:50 | W 19 | 16.09 | Clear | SKC | 16 | 13 | 83% | 76.25 | 0.0 | |||||||
| 06 | 18:50 | W 20 | 16.09 | Clear | SKC | 18 | 13 | 73% | 76.23 | 0.0 | |||||||
| 06 | 17:51 | W 24 | 16.09 | A Few Clouds | FEW010 | 19 | 13 | 68% | 76.2 | 0.0 | |||||||
| 06 | 16:50 | W 30 G 37 | 16.09 | Partly Cloudy | FEW010 SCT090 | 19 | 13 | 68% | 76.2 | 0.0 | |||||||
| 06 | 15:47 | W 28 G 39 | 16.09 | A Few Clouds | FEW026 | 20 | 13 | 64% | 76.23 | 0.0 | |||||||
| 06 | 14:52 | W 26 G 39 | 16.09 | A Few Clouds | FEW025 | 22 | 13 | 57% | 76.25 | 0.0 | |||||||
| 06 | 13:51 | W 22 | 16.09 | A Few Clouds | FEW025 | 21 | 11 | 53% | 76.3 | 0.0 | |||||||
| 06 | 12:47 | W 19 | 16.09 | A Few Clouds | FEW025 | 21 | 13 | 60% | 76.35 | 0.0 | |||||||
| 06 | 11:52 | SE 7 | 16.09 | Partly Cloudy | SCT030 | 21 | 12 | 57% | 76.38 | 0.0 | |||||||
| 06 | 10:47 | E 7 | 16.09 | Partly Cloudy | SCT024 | 21 | 12 | 57% | 76.4 | 0.0 | |||||||
| 06 | 09:47 | E 6 | 16.09 | Partly Cloudy | SCT025 | 19 | 11 | 60% | 76.4 | 0.0 | |||||||
| 06 | 08:50 | E 7 | 16.09 | Partly Cloudy | SCT025 | 17 | 12 | 73% | 76.4 | 0.0 | |||||||
| 06 | 07:51 | Calm | 16.09 | Partly Cloudy | FEW016 SCT027 | 16 | 12 | 77% | 76.4 | 0.0 | |||||||
| 06 | 06:49 | Calm | 16.09 | A Few Clouds | FEW012 | 12 | 11 | 94% | 76.38 | 0.0 | |||||||
| 05 | 19:50 | SW 7 | 16.09 | Partly Cloudy | SCT070 | 16 | 11 | 72% | 76.15 | 0.0 | |||||||
| 05 | 18:50 | SW 13 | 16.09 | Partly Cloudy | SCT070 | 17 | 9 | 60% | 76.1 | 0.0 | |||||||
| 05 | 17:47 | W 13 | 16.09 | Partly Cloudy | SCT070 | 18 | 9 | 56% | 76.1 | 0.0 | |||||||
| 05 | 16:50 | W 17 | 16.09 | Partly Cloudy | FEW010 SCT070 | 18 | 11 | 64% | 76.1 | 0.0 | |||||||
| 05 | 15:47 | SW 20 | 16.09 | Partly Cloudy | SCT060 | 19 | 8 | 49% | 76.1 | 0.0 | |||||||
| 05 | 14:47 | W 19 | 16.09 | Partly Cloudy | SCT060 | 19 | 9 | 52% | 76.12 | 0.0 | |||||||
| 05 | 13:50 | SW 24 | 16.09 | Partly Cloudy | SCT075 | 20 | 8 | 46% | 76.15 | 0.0 | |||||||
| 05 | 12:47 | W 19 | 16.09 | Partly Cloudy | SCT075 | 19 | 10 | 56% | 76.15 | 0.0 | |||||||
| 05 | 11:47 | W 22 G 33 | 16.09 | Mostly Cloudy | BKN075 | 18 | 9 | 56% | 76.17 | 0.0 | |||||||
| 05 | 10:53 | SW 17 | 16.09 | Partly Cloudy | FEW019 SCT060 | 17 | 11 | 68% | 76.17 | 0.0 | |||||||
| 05 | 09:49 | SW 17 | 16.09 | Partly Cloudy | FEW019 SCT060 | 17 | 11 | 68% | 76.12 | 0.0 | |||||||
| 05 | 08:49 | SW 19 | 16.09 | Partly Cloudy | FEW019 SCT060 | 17 | 11 | 68% | 76.1 | 0.0 | |||||||
| 05 | 07:59 | W 19 | 16.09 | Partly Cloudy | FEW010 SCT019 SCT060 | 16 | 11 | 72% | 76.07 | 0.0 | |||||||
| 05 | 06:57 | W 6 | 16.09 | Mostly Cloudy | FEW010 SCT023 BKN075 | 14 | 11 | 82% | 76.05 | 0.0 | |||||||
| 04 | 19:47 | S 17 | 16.09 | Overcast | SCT022 OVC075 | 16 | 12 | 77% | 76.12 | 0.0 | |||||||
| 04 | 18:49 | SW 19 | 16.09 | Overcast | FEW022 OVC075 | 17 | 11 | 68% | 76.12 | 0.0 | |||||||
| 04 | 17:47 | SW 19 | 16.09 | Overcast | FEW022 OVC075 | 17 | 11 | 68% | 76.12 | 0.0 | |||||||
| 04 | 16:50 | SW 22 | 16.09 | Overcast | SCT043 OVC085 | 18 | 11 | 64% | 76.15 | 0.0 | |||||||
| 04 | 15:48 | SW 26 G 39 | 16.09 | Overcast | SCT041 OVC085 | 19 | 11 | 60% | 76.12 | 0.0 | |||||||
| Date | Time (pdt) | Wind (kph) | Vis. (km) | Weather | Sky Cond. | Air | Dwpt | Max. | Min. | Relative Humidity | Wind Chill (°C) | Heat Index (°C) | altimeter (cm) | sea level (mb) | 1 hr | 3 hr | 6 hr |
| 6 hour | |||||||||||||||||
| Temperature (ºC) | Pressure | Precipitation (cm) | |||||||||||||||